Year,Month,Day,Hour,Minute,Value (Times are PST for temperature in C)
2017,07,03,00,01,12.90
2017,07,03,00,02,12.90
2017,07,03,00,03,12.90
2017,07,03,00,04,12.90
2017,07,03,00,06,12.90
2017,07,03,00,07,12.80
2017,07,03,00,08,12.80
2017,07,03,00,09,12.80
2017,07,03,00,10,12.80
2017,07,03,00,11,12.80
2017,07,03,00,12,12.80
2017,07,03,00,13,12.80
2017,07,03,00,14,12.80
2017,07,03,00,15,12.80
2017,07,03,00,16,12.80
2017,07,03,00,17,12.80
2017,07,03,00,18,12.80
2017,07,03,00,19,12.80
2017,07,03,00,20,12.80
2017,07,03,00,22,12.80
2017,07,03,00,23,12.80
2017,07,03,00,24,12.80
2017,07,03,00,26,12.80
2017,07,03,00,27,12.80
2017,07,03,00,28,12.80
2017,07,03,00,29,12.80
2017,07,03,00,31,12.80
2017,07,03,00,32,12.80
2017,07,03,00,33,12.80
2017,07,03,00,34,12.80
2017,07,03,00,35,12.80
2017,07,03,00,36,12.80
2017,07,03,00,37,12.80
2017,07,03,00,38,12.80
2017,07,03,00,39,12.80
2017,07,03,00,40,12.80
2017,07,03,00,41,12.80
2017,07,03,00,43,12.80
2017,07,03,00,44,12.80
2017,07,03,00,46,12.80
2017,07,03,00,47,12.80
2017,07,03,00,48,12.80
2017,07,03,00,49,12.80
2017,07,03,00,51,12.90
2017,07,03,00,52,12.90
2017,07,03,00,53,12.90
2017,07,03,00,54,12.90
2017,07,03,00,56,12.90
2017,07,03,00,57,12.90
2017,07,03,00,58,12.90
2017,07,03,00,59,12.90
2017,07,03,01,01,12.90
2017,07,03,01,02,13.00
2017,07,03,01,03,13.00
2017,07,03,01,04,13.00
2017,07,03,01,06,13.00
2017,07,03,01,07,13.10
2017,07,03,01,08,13.10
2017,07,03,01,09,13.10
2017,07,03,01,11,13.10
2017,07,03,01,12,13.10
2017,07,03,01,13,13.10
2017,07,03,01,14,13.10
2017,07,03,01,15,13.10
2017,07,03,01,16,13.10
2017,07,03,01,17,13.20
2017,07,03,01,31,13.20
2017,07,03,01,32,13.20
2017,07,03,01,33,13.20
2017,07,03,01,34,13.20
2017,07,03,01,35,13.20
2017,07,03,01,36,13.20
2017,07,03,01,37,13.20
2017,07,03,01,38,13.20
2017,07,03,01,39,13.10
2017,07,03,01,40,13.10
2017,07,03,01,41,13.10
2017,07,03,01,42,13.10
2017,07,03,01,43,13.10
2017,07,03,01,44,13.10
2017,07,03,01,45,13.10
2017,07,03,01,46,13.10
2017,07,03,01,47,13.10
2017,07,03,01,49,13.10
2017,07,03,01,51,13.10
2017,07,03,01,52,13.00
2017,07,03,02,31,12.90
2017,07,03,02,32,12.90
2017,07,03,02,33,12.90
2017,07,03,02,34,12.90
2017,07,03,02,35,12.80
2017,07,03,02,36,12.80
2017,07,03,02,37,12.80
2017,07,03,02,39,12.80
2017,07,03,02,41,12.80
2017,07,03,02,42,12.80
2017,07,03,02,43,12.80
2017,07,03,02,44,12.80
2017,07,03,02,46,12.80
2017,07,03,02,47,12.80
2017,07,03,02,48,12.80
2017,07,03,02,49,12.80
2017,07,03,02,51,12.80
2017,07,03,02,52,12.80
2017,07,03,02,53,12.80
2017,07,03,02,54,12.80
2017,07,03,02,56,12.80
2017,07,03,03,31,12.60
2017,07,03,03,32,12.60
2017,07,03,03,33,12.60
2017,07,03,03,34,12.60
2017,07,03,03,35,12.60
2017,07,03,03,36,12.60
2017,07,03,03,37,12.50
2017,07,03,03,38,12.50
2017,07,03,03,39,12.50
2017,07,03,03,40,12.50
2017,07,03,03,41,12.50
2017,07,03,03,42,12.50
2017,07,03,03,43,12.50
2017,07,03,03,44,12.50
2017,07,03,03,45,12.50
2017,07,03,03,46,12.50
2017,07,03,03,47,12.50
2017,07,03,03,48,12.50
2017,07,03,03,49,12.50
2017,07,03,03,50,12.50
2017,07,03,03,51,12.50
2017,07,03,03,52,12.50
2017,07,03,03,53,12.50
2017,07,03,03,54,12.40
2017,07,03,03,55,12.40
2017,07,03,03,56,12.40
2017,07,03,03,57,12.40
2017,07,03,03,58,12.40
2017,07,03,03,59,12.40
2017,07,03,04,00,12.40
2017,07,03,04,01,12.40
2017,07,03,04,02,12.40
2017,07,03,04,03,12.40
2017,07,03,04,04,12.40
2017,07,03,04,05,12.40
2017,07,03,04,06,12.40
2017,07,03,04,07,12.40
2017,07,03,04,08,12.40
2017,07,03,04,09,12.40
2017,07,03,04,10,12.40
2017,07,03,04,12,12.40
2017,07,03,04,13,12.40
2017,07,03,04,14,12.40
2017,07,03,04,16,12.40
2017,07,03,04,17,12.40
2017,07,03,04,18,12.40
2017,07,03,04,19,12.40
2017,07,03,04,21,12.40
2017,07,03,04,22,12.40
2017,07,03,04,23,12.40
2017,07,03,04,24,12.40
2017,07,03,04,26,12.40
2017,07,03,04,27,12.40
2017,07,03,04,28,12.40
2017,07,03,04,29,12.40
2017,07,03,04,31,12.40
2017,07,03,04,32,12.40
2017,07,03,04,33,12.40
2017,07,03,04,34,12.40
2017,07,03,04,36,12.40
2017,07,03,04,37,12.40
2017,07,03,04,38,12.40
2017,07,03,04,39,12.40
2017,07,03,04,41,12.40
2017,07,03,04,42,12.40
2017,07,03,04,43,12.40
2017,07,03,04,44,12.40
2017,07,03,04,46,12.40
2017,07,03,04,47,12.40
2017,07,03,04,48,12.40
2017,07,03,04,49,12.40
2017,07,03,04,51,12.40
2017,07,03,04,52,12.40
2017,07,03,04,53,12.40
2017,07,03,04,54,12.40
2017,07,03,04,56,12.40
2017,07,03,04,57,12.40
2017,07,03,04,58,12.40
2017,07,03,04,59,12.40
2017,07,03,05,01,12.40
2017,07,03,05,02,12.40
2017,07,03,05,03,12.40
2017,07,03,05,04,12.40
2017,07,03,05,06,12.40
2017,07,03,05,07,12.40
2017,07,03,05,08,12.40
2017,07,03,05,09,12.40
2017,07,03,05,11,12.40
2017,07,03,05,12,12.40
2017,07,03,05,13,12.40
2017,07,03,05,14,12.40
2017,07,03,05,16,12.40
2017,07,03,05,17,12.40
2017,07,03,05,18,12.50
2017,07,03,05,19,12.50
2017,07,03,05,20,12.50
2017,07,03,05,21,12.50
2017,07,03,05,22,12.50
2017,07,03,05,23,12.50
2017,07,03,05,24,12.50
2017,07,03,05,25,12.50
2017,07,03,05,26,12.50
2017,07,03,05,27,12.60
2017,07,03,05,28,12.60
2017,07,03,05,29,12.60
2017,07,03,05,30,12.60
2017,07,03,05,31,12.60
2017,07,03,05,32,12.60
2017,07,03,05,33,12.60
2017,07,03,05,34,12.60
2017,07,03,05,35,12.60
2017,07,03,05,36,12.60
2017,07,03,05,37,12.70
2017,07,03,05,38,12.70
2017,07,03,05,39,12.70
2017,07,03,05,40,12.70
2017,07,03,05,41,12.70
2017,07,03,05,42,12.70
2017,07,03,05,43,12.70
2017,07,03,05,44,12.70
2017,07,03,05,45,12.70
2017,07,03,05,46,12.70
2017,07,03,05,47,12.70
2017,07,03,05,48,12.70
2017,07,03,05,49,12.70
2017,07,03,05,50,12.70
2017,07,03,05,51,12.70
2017,07,03,05,52,12.70
2017,07,03,05,53,12.80
2017,07,03,05,54,12.80
2017,07,03,05,55,12.80
2017,07,03,05,56,12.80
2017,07,03,05,57,12.80
2017,07,03,05,58,12.80
2017,07,03,05,59,12.80
2017,07,03,06,00,12.80
2017,07,03,06,01,12.80
2017,07,03,06,31,13.00
2017,07,03,06,32,13.10
2017,07,03,06,33,13.10
2017,07,03,06,34,13.10
2017,07,03,06,35,13.10
2017,07,03,06,36,13.10
2017,07,03,06,37,13.10
2017,07,03,06,38,13.10
2017,07,03,06,39,13.10
2017,07,03,06,40,13.10
2017,07,03,06,41,13.10
2017,07,03,06,42,13.10
2017,07,03,06,43,13.10
2017,07,03,06,44,13.20
2017,07,03,06,45,13.20
2017,07,03,06,46,13.20
2017,07,03,06,47,13.20
2017,07,03,06,48,13.20
2017,07,03,06,49,13.20
2017,07,03,06,50,13.20
2017,07,03,06,51,13.20
2017,07,03,06,52,13.20
2017,07,03,06,53,13.20
2017,07,03,06,54,13.20
2017,07,03,06,55,13.20
2017,07,03,06,56,13.20
2017,07,03,06,57,13.20
2017,07,03,06,58,13.20
2017,07,03,06,59,13.20
2017,07,03,07,00,13.20
2017,07,03,07,01,13.20
2017,07,03,07,02,13.20
2017,07,03,07,03,13.20
2017,07,03,07,04,13.20
2017,07,03,07,05,13.30
2017,07,03,07,06,13.30
2017,07,03,07,07,13.30
2017,07,03,07,08,13.30
2017,07,03,07,09,13.30
2017,07,03,07,10,13.30
2017,07,03,07,12,13.30
2017,07,03,07,13,13.30
2017,07,03,07,14,13.30
2017,07,03,07,16,13.30
2017,07,03,07,17,13.40
2017,07,03,07,18,13.40
2017,07,03,07,19,13.40
2017,07,03,07,21,13.50
2017,07,03,07,22,13.50
2017,07,03,07,23,13.60
2017,07,03,07,24,13.60
2017,07,03,07,26,13.70
2017,07,03,07,27,13.70
2017,07,03,07,28,13.70
2017,07,03,07,29,13.70
2017,07,03,07,31,13.70
2017,07,03,07,32,13.80
2017,07,03,07,33,13.80
2017,07,03,07,34,13.90
2017,07,03,07,36,13.90
2017,07,03,07,37,14.00
2017,07,03,07,38,14.00
2017,07,03,07,39,14.00
2017,07,03,07,41,14.10
2017,07,03,07,42,14.20
2017,07,03,07,43,14.20
2017,07,03,07,44,14.20
2017,07,03,07,46,14.20
2017,07,03,07,47,14.20
2017,07,03,07,48,14.20
2017,07,03,07,49,14.20
2017,07,03,07,51,14.30
2017,07,03,07,52,14.30
2017,07,03,07,53,14.30
2017,07,03,07,54,14.30
2017,07,03,07,56,14.30
2017,07,03,07,57,14.30
2017,07,03,07,58,14.30
2017,07,03,07,59,14.30
2017,07,03,08,01,14.30
2017,07,03,08,02,14.30
2017,07,03,08,03,14.30
2017,07,03,08,04,14.30
2017,07,03,08,06,14.30
2017,07,03,08,07,14.30
2017,07,03,08,08,14.40
2017,07,03,08,09,14.40
2017,07,03,08,11,14.50
2017,07,03,08,12,14.50
2017,07,03,08,13,14.50
2017,07,03,08,14,14.60
2017,07,03,08,16,14.60
2017,07,03,08,17,14.70
2017,07,03,08,18,14.70
2017,07,03,08,19,14.70
2017,07,03,08,21,14.80
2017,07,03,08,22,14.80
2017,07,03,08,23,14.80
2017,07,03,08,24,14.80
2017,07,03,08,26,14.90
2017,07,03,08,27,14.90
2017,07,03,08,28,14.90
2017,07,03,08,29,15.00
2017,07,03,08,31,15.10
2017,07,03,08,32,15.20
2017,07,03,08,33,15.20
2017,07,03,08,34,15.30
2017,07,03,08,36,15.30
2017,07,03,08,37,15.40
2017,07,03,08,38,15.40
2017,07,03,08,39,15.50
2017,07,03,08,41,15.60
2017,07,03,08,42,15.60
2017,07,03,08,43,15.70
2017,07,03,08,44,15.70
2017,07,03,08,45,15.80
2017,07,03,08,46,15.80
2017,07,03,08,47,15.80
2017,07,03,08,48,15.80
2017,07,03,08,49,15.80
2017,07,03,08,50,15.80
2017,07,03,08,51,15.80
2017,07,03,08,52,15.80
2017,07,03,08,53,15.80
2017,07,03,08,54,15.80
2017,07,03,08,55,15.80
2017,07,03,08,56,15.90
2017,07,03,08,57,15.90
2017,07,03,08,58,15.90
2017,07,03,08,59,15.90
2017,07,03,09,00,15.90
2017,07,03,09,01,15.90
2017,07,03,09,02,15.90
2017,07,03,09,03,15.90
2017,07,03,09,04,15.90
2017,07,03,09,06,15.90
2017,07,03,09,07,15.90
2017,07,03,09,08,15.90
2017,07,03,09,09,15.80
2017,07,03,09,10,15.80
2017,07,03,09,11,15.80
2017,07,03,09,12,15.80
2017,07,03,09,13,15.80
2017,07,03,09,14,15.80
2017,07,03,09,15,15.80
2017,07,03,09,16,15.80
2017,07,03,09,17,15.80
2017,07,03,09,18,15.80
2017,07,03,09,19,15.80
2017,07,03,09,20,15.80
2017,07,03,09,21,15.80
2017,07,03,09,22,15.80
2017,07,03,09,23,15.70
2017,07,03,09,24,15.70
2017,07,03,09,25,15.70
2017,07,03,09,26,15.70
2017,07,03,09,27,15.70
2017,07,03,09,28,15.60
2017,07,03,09,29,15.60
2017,07,03,09,30,15.60
2017,07,03,09,31,15.60
2017,07,03,09,32,15.60
2017,07,03,09,33,15.60
2017,07,03,09,34,15.60
2017,07,03,09,35,15.60
2017,07,03,09,36,15.60
2017,07,03,09,37,15.70
2017,07,03,09,38,15.80
2017,07,03,09,39,15.80
2017,07,03,09,40,15.80
2017,07,03,09,41,15.80
2017,07,03,09,42,15.90
2017,07,03,09,43,16.10
2017,07,03,09,44,16.20
2017,07,03,09,45,16.30
2017,07,03,09,46,16.40
2017,07,03,09,47,16.40
2017,07,03,09,48,16.60
2017,07,03,09,49,16.70
2017,07,03,09,50,16.70
2017,07,03,09,51,16.80
2017,07,03,09,52,16.90
2017,07,03,09,53,17.00
2017,07,03,09,54,17.00
2017,07,03,09,55,17.10
2017,07,03,09,57,17.10
2017,07,03,09,58,17.10
2017,07,03,09,59,17.10
2017,07,03,10,00,17.00
2017,07,03,10,02,16.90
2017,07,03,10,03,17.00
2017,07,03,10,04,17.00
2017,07,03,10,06,17.10
2017,07,03,10,07,17.10
2017,07,03,10,08,17.10
2017,07,03,10,09,17.20
2017,07,03,10,11,17.20
2017,07,03,10,12,17.30
2017,07,03,10,13,17.30
2017,07,03,10,14,17.30
2017,07,03,10,16,17.30
2017,07,03,10,17,17.30
2017,07,03,10,18,17.30
2017,07,03,10,19,17.30
2017,07,03,10,21,17.40
2017,07,03,10,22,17.50
2017,07,03,10,23,17.60
2017,07,03,10,24,17.70
2017,07,03,10,26,17.90
2017,07,03,10,27,18.10
2017,07,03,10,28,18.20
2017,07,03,10,29,18.30
2017,07,03,10,31,18.60
2017,07,03,10,32,18.70
2017,07,03,10,33,18.80
2017,07,03,10,34,18.90
2017,07,03,10,36,19.10
2017,07,03,10,37,19.10
2017,07,03,10,38,19.20
2017,07,03,10,39,19.30
2017,07,03,10,41,19.40
2017,07,03,10,42,19.50
2017,07,03,10,43,19.50
2017,07,03,10,44,19.50
2017,07,03,10,46,19.40
2017,07,03,10,47,19.40
2017,07,03,10,48,19.30
2017,07,03,10,49,19.20
2017,07,03,10,51,19.20
2017,07,03,10,52,19.20
2017,07,03,10,53,19.30
2017,07,03,10,54,19.30
2017,07,03,10,56,19.40
2017,07,03,10,57,19.50
2017,07,03,10,58,19.60
2017,07,03,10,59,19.70
2017,07,03,11,01,19.80
2017,07,03,11,02,19.90
2017,07,03,11,03,19.90
2017,07,03,11,04,19.90
2017,07,03,11,06,20.10
2017,07,03,11,07,20.10
2017,07,03,11,08,20.10
2017,07,03,11,09,20.10
2017,07,03,11,11,20.20
2017,07,03,11,12,20.20
2017,07,03,11,13,20.20
2017,07,03,11,14,20.20
2017,07,03,11,16,20.20
2017,07,03,11,17,20.20
2017,07,03,11,18,20.30
2017,07,03,11,19,20.30
2017,07,03,11,21,20.30
2017,07,03,11,22,20.30
2017,07,03,11,23,20.30
2017,07,03,11,24,20.20
2017,07,03,11,25,20.20
2017,07,03,11,26,20.20
2017,07,03,11,27,20.20
2017,07,03,11,28,20.30
2017,07,03,11,29,20.30
2017,07,03,11,30,20.30
2017,07,03,11,31,20.40
2017,07,03,11,32,20.40
2017,07,03,11,33,20.50
2017,07,03,11,34,20.60
2017,07,03,11,36,20.70
2017,07,03,11,37,20.70
2017,07,03,11,38,20.80
2017,07,03,11,39,20.90
2017,07,03,11,40,20.90
2017,07,03,11,41,20.90
2017,07,03,11,42,20.90
2017,07,03,11,43,21.00
2017,07,03,11,44,21.00
2017,07,03,11,45,21.10
2017,07,03,11,46,21.10
2017,07,03,11,47,21.10
2017,07,03,11,48,21.20
2017,07,03,11,49,21.20
2017,07,03,11,50,21.20
2017,07,03,11,51,21.20
2017,07,03,11,52,21.20
2017,07,03,11,53,21.20
2017,07,03,11,54,21.20
2017,07,03,11,55,21.20
2017,07,03,11,56,21.20
2017,07,03,11,57,21.30
2017,07,03,11,58,21.30
2017,07,03,11,59,21.30
2017,07,03,12,00,21.30
2017,07,03,12,01,21.20
2017,07,03,12,02,21.20
2017,07,03,12,03,21.20
2017,07,03,12,04,21.20
2017,07,03,12,05,21.10
2017,07,03,12,06,21.10
2017,07,03,12,07,21.10
2017,07,03,12,08,21.00
2017,07,03,12,09,20.90
2017,07,03,12,10,20.80
2017,07,03,12,11,20.70
2017,07,03,12,12,20.50
2017,07,03,12,13,20.40
2017,07,03,12,14,20.40
2017,07,03,12,15,20.30
2017,07,03,12,16,20.30
2017,07,03,12,17,20.20
2017,07,03,12,18,20.20
2017,07,03,12,19,20.20
2017,07,03,12,20,20.20
2017,07,03,12,21,20.20
2017,07,03,12,22,20.20
2017,07,03,12,23,20.20
2017,07,03,12,24,20.20
2017,07,03,12,25,20.20
2017,07,03,12,26,20.20
2017,07,03,12,27,20.20
2017,07,03,12,28,20.20
2017,07,03,12,29,20.20
2017,07,03,12,30,20.20
2017,07,03,12,31,20.20
2017,07,03,12,32,20.30
2017,07,03,12,33,20.40
2017,07,03,12,34,20.50
2017,07,03,12,35,20.60
2017,07,03,12,36,20.70
2017,07,03,12,37,20.80
2017,07,03,12,38,20.90
2017,07,03,12,39,21.00
2017,07,03,12,40,21.00
2017,07,03,12,41,21.10
2017,07,03,12,42,21.10
2017,07,03,12,43,21.20
2017,07,03,12,44,21.20
2017,07,03,12,45,21.20
2017,07,03,12,46,21.30
2017,07,03,12,47,21.30
2017,07,03,12,48,21.30
2017,07,03,12,49,21.30
2017,07,03,12,50,21.30
2017,07,03,12,51,21.30
2017,07,03,12,53,21.30
2017,07,03,12,54,21.30
2017,07,03,12,56,21.30
2017,07,03,12,57,21.30
2017,07,03,12,58,21.30
2017,07,03,12,59,21.30
2017,07,03,13,01,21.30
2017,07,03,13,02,21.30
2017,07,03,13,03,21.30
2017,07,03,13,04,21.30
2017,07,03,13,06,21.10
2017,07,03,13,07,21.00
2017,07,03,13,08,21.00
2017,07,03,13,09,20.90
2017,07,03,13,11,20.80
2017,07,03,13,12,20.70
2017,07,03,13,13,20.60
2017,07,03,13,14,20.50
2017,07,03,13,16,20.20
2017,07,03,13,17,20.20
2017,07,03,13,18,19.90
2017,07,03,13,19,19.90
2017,07,03,13,21,19.70
2017,07,03,13,22,19.70
2017,07,03,13,23,19.60
2017,07,03,13,24,19.60
2017,07,03,13,26,19.50
2017,07,03,13,27,19.50
2017,07,03,13,28,19.50
2017,07,03,13,29,19.50
2017,07,03,13,31,19.50
2017,07,03,13,32,19.50
2017,07,03,13,33,19.50
2017,07,03,13,34,19.50
2017,07,03,13,36,19.60
2017,07,03,13,37,19.60
2017,07,03,13,38,19.60
2017,07,03,13,39,19.60
2017,07,03,13,41,19.60
2017,07,03,13,42,19.60
2017,07,03,13,43,19.70
2017,07,03,13,44,19.70
2017,07,03,13,46,19.70
2017,07,03,13,47,19.70
2017,07,03,13,48,19.60
2017,07,03,13,49,19.60
2017,07,03,13,51,19.50
2017,07,03,13,52,19.50
2017,07,03,13,53,19.50
2017,07,03,13,54,19.40
2017,07,03,13,56,19.30
2017,07,03,13,57,19.30
2017,07,03,13,58,19.20
2017,07,03,13,59,19.20
2017,07,03,14,01,19.10
2017,07,03,14,02,19.10
2017,07,03,14,03,19.10
2017,07,03,14,04,19.20
2017,07,03,14,06,19.20
2017,07,03,14,07,19.20
2017,07,03,14,08,19.20
2017,07,03,14,09,19.20
2017,07,03,14,11,19.20
2017,07,03,14,12,19.30
2017,07,03,14,13,19.30
2017,07,03,14,14,19.30
2017,07,03,14,16,19.40
2017,07,03,14,17,19.40
2017,07,03,14,18,19.50
2017,07,03,14,19,19.50
2017,07,03,14,21,19.70
2017,07,03,14,22,19.70
2017,07,03,14,23,19.80
2017,07,03,14,24,19.80
2017,07,03,14,25,19.90
2017,07,03,14,26,19.90
2017,07,03,14,27,19.90
2017,07,03,14,28,19.90
2017,07,03,14,29,19.90
2017,07,03,14,30,19.90
2017,07,03,14,31,19.90
2017,07,03,14,32,20.10
2017,07,03,14,33,20.10
2017,07,03,14,34,20.10
2017,07,03,14,36,20.20
2017,07,03,14,37,20.20
2017,07,03,14,38,20.20
2017,07,03,14,39,20.20
2017,07,03,14,40,20.20
2017,07,03,14,41,20.20
2017,07,03,14,42,20.20
2017,07,03,14,43,20.20
2017,07,03,14,44,20.20
2017,07,03,14,45,20.30
2017,07,03,14,46,20.30
2017,07,03,14,47,20.30
2017,07,03,14,48,20.30
2017,07,03,14,49,20.30
2017,07,03,14,50,20.30
2017,07,03,14,51,20.20
2017,07,03,14,52,20.20
2017,07,03,14,53,20.20
2017,07,03,14,54,20.20
2017,07,03,14,55,20.10
2017,07,03,14,56,20.20
2017,07,03,14,57,20.10
2017,07,03,14,58,20.10
2017,07,03,14,59,20.10
2017,07,03,15,00,20.20
2017,07,03,15,01,20.20
2017,07,03,15,02,20.10
2017,07,03,15,03,20.20
2017,07,03,15,04,20.20
2017,07,03,15,05,20.20
2017,07,03,15,06,20.30
2017,07,03,15,07,20.30
2017,07,03,15,08,20.40
2017,07,03,15,09,20.50
2017,07,03,15,10,20.60
2017,07,03,15,11,20.70
2017,07,03,15,12,20.80
2017,07,03,15,13,20.90
2017,07,03,15,14,21.00
2017,07,03,15,15,21.00
2017,07,03,15,16,20.90
2017,07,03,15,17,20.90
2017,07,03,15,18,20.90
2017,07,03,15,19,20.90
2017,07,03,15,20,20.90
2017,07,03,15,21,20.90
2017,07,03,15,22,21.00
2017,07,03,15,23,21.10
2017,07,03,15,24,21.10
2017,07,03,15,25,21.30
2017,07,03,15,26,21.30
2017,07,03,15,27,21.40
2017,07,03,15,28,21.60
2017,07,03,15,29,21.60
2017,07,03,15,30,21.60
2017,07,03,15,31,21.60
2017,07,03,15,32,21.60
2017,07,03,15,33,21.60
2017,07,03,15,34,21.60
2017,07,03,15,35,21.60
2017,07,03,15,36,21.60
2017,07,03,15,37,21.30
2017,07,03,15,38,21.30
2017,07,03,15,39,21.20
2017,07,03,15,40,21.10
2017,07,03,15,41,21.10
2017,07,03,15,42,21.00
2017,07,03,15,43,21.00
2017,07,03,15,44,21.00
2017,07,03,15,46,21.00
2017,07,03,15,47,21.00
2017,07,03,15,48,21.00
2017,07,03,15,49,21.00
2017,07,03,15,51,21.10
2017,07,03,15,52,21.10
2017,07,03,15,53,21.20
2017,07,03,15,54,21.10
2017,07,03,15,56,21.00
2017,07,03,15,57,20.90
2017,07,03,15,58,20.70
2017,07,03,15,59,20.40
2017,07,03,16,01,20.20
2017,07,03,16,02,20.20
2017,07,03,16,03,20.20
2017,07,03,16,04,20.20
2017,07,03,16,06,20.30
2017,07,03,16,07,20.30
2017,07,03,16,08,20.40
2017,07,03,16,09,20.50
2017,07,03,16,11,20.50
2017,07,03,16,12,20.50
2017,07,03,16,13,20.50
2017,07,03,16,14,20.50
2017,07,03,16,16,20.50
2017,07,03,16,17,20.40
2017,07,03,16,18,20.40
2017,07,03,16,19,20.40
2017,07,03,16,21,20.50
2017,07,03,16,22,20.50
2017,07,03,16,23,20.50
2017,07,03,16,24,20.50
2017,07,03,16,26,20.50
2017,07,03,16,27,20.50
2017,07,03,16,28,20.40
2017,07,03,16,29,20.40
2017,07,03,16,31,20.30
2017,07,03,16,32,20.20
2017,07,03,16,33,20.20
2017,07,03,16,34,20.20
2017,07,03,16,36,20.20
2017,07,03,16,37,20.20
2017,07,03,16,38,20.20
2017,07,03,16,39,20.20
2017,07,03,16,41,20.20
2017,07,03,16,42,20.10
2017,07,03,16,43,20.10
2017,07,03,16,44,20.10
2017,07,03,16,46,19.90
2017,07,03,16,47,19.80
2017,07,03,16,48,19.70
2017,07,03,16,49,19.60
2017,07,03,16,51,19.50
2017,07,03,16,52,19.40
2017,07,03,16,53,19.30
2017,07,03,16,54,19.20
2017,07,03,16,56,19.10
2017,07,03,16,57,19.10
2017,07,03,16,58,18.90
2017,07,03,16,59,18.90
2017,07,03,17,01,18.70
2017,07,03,17,02,18.60
2017,07,03,17,03,18.60
2017,07,03,17,04,18.60
2017,07,03,17,06,18.40
2017,07,03,17,07,18.40
2017,07,03,17,08,18.40
2017,07,03,17,09,18.30
2017,07,03,17,11,18.40
2017,07,03,17,12,18.40
2017,07,03,17,13,18.30
2017,07,03,17,14,18.30
2017,07,03,17,15,18.30
2017,07,03,17,16,18.30
2017,07,03,17,17,18.20
2017,07,03,17,18,18.20
2017,07,03,17,19,18.20
2017,07,03,17,20,18.20
2017,07,03,17,21,18.20
2017,07,03,17,22,18.20
2017,07,03,17,23,18.20
2017,07,03,17,24,18.20
2017,07,03,17,25,18.10
2017,07,03,17,26,18.10
2017,07,03,17,27,17.90
2017,07,03,17,28,17.90
2017,07,03,17,29,17.90
2017,07,03,17,30,17.90
2017,07,03,17,31,17.90
2017,07,03,17,32,17.90
2017,07,03,17,33,17.80
2017,07,03,17,34,17.70
2017,07,03,17,35,17.60
2017,07,03,17,36,17.50
2017,07,03,17,37,17.40
2017,07,03,17,38,17.40
2017,07,03,17,39,17.40
2017,07,03,17,40,17.40
2017,07,03,17,41,17.40
2017,07,03,17,42,17.40
2017,07,03,17,43,17.40
2017,07,03,17,44,17.50
2017,07,03,17,45,17.50
2017,07,03,17,46,17.60
2017,07,03,17,47,17.70
2017,07,03,17,48,17.70
2017,07,03,17,49,17.80
2017,07,03,17,50,17.90
2017,07,03,17,51,17.90
2017,07,03,17,52,18.10
2017,07,03,17,53,18.20
2017,07,03,17,54,18.30
2017,07,03,17,55,18.40
2017,07,03,17,56,18.50
2017,07,03,17,57,18.60
2017,07,03,17,58,18.70
2017,07,03,17,59,18.80
2017,07,03,18,00,18.90
2017,07,03,18,01,18.90
2017,07,03,18,02,19.10
2017,07,03,18,03,19.10
2017,07,03,18,04,19.10
2017,07,03,18,05,19.20
2017,07,03,18,06,19.30
2017,07,03,18,07,19.30
2017,07,03,18,08,19.40
2017,07,03,18,09,19.40
2017,07,03,18,10,19.40
2017,07,03,18,11,19.40
2017,07,03,18,12,19.40
2017,07,03,18,13,19.40
2017,07,03,18,14,19.30
2017,07,03,18,15,19.30
2017,07,03,18,16,19.40
2017,07,03,18,17,19.40
2017,07,03,18,18,19.50
2017,07,03,18,19,19.50
2017,07,03,18,20,19.50
2017,07,03,18,21,19.40
2017,07,03,18,22,19.30
2017,07,03,18,23,19.30
2017,07,03,18,24,19.30
2017,07,03,18,25,19.30
2017,07,03,18,26,19.30
2017,07,03,18,27,19.30
2017,07,03,18,28,19.20
2017,07,03,18,29,19.20
2017,07,03,18,30,19.20
2017,07,03,18,31,19.20
2017,07,03,18,32,19.20
2017,07,03,18,34,19.10
2017,07,03,18,36,19.10
2017,07,03,18,37,19.10
2017,07,03,18,38,19.10
2017,07,03,18,39,19.10
2017,07,03,18,41,19.20
2017,07,03,18,42,19.20
2017,07,03,18,43,19.20
2017,07,03,18,44,19.30
2017,07,03,18,46,19.40
2017,07,03,18,47,19.40
2017,07,03,18,48,19.50
2017,07,03,18,49,19.50
2017,07,03,18,51,19.60
2017,07,03,18,52,19.70
2017,07,03,18,53,19.70
2017,07,03,18,54,19.80
2017,07,03,18,56,19.90
2017,07,03,18,57,19.90
2017,07,03,18,58,20.10
2017,07,03,18,59,20.20
2017,07,03,19,01,20.20
2017,07,03,19,02,20.30
2017,07,03,19,03,20.30
2017,07,03,19,04,20.30
2017,07,03,19,06,20.30
2017,07,03,19,07,20.30
2017,07,03,19,08,20.40
2017,07,03,19,09,20.40
2017,07,03,19,11,20.20
2017,07,03,19,12,19.90
2017,07,03,19,13,19.90
2017,07,03,19,14,19.80
2017,07,03,19,16,19.70
2017,07,03,19,17,19.60
2017,07,03,19,18,19.60
2017,07,03,19,19,19.60
2017,07,03,19,21,19.60
2017,07,03,19,22,19.60
2017,07,03,19,23,19.50
2017,07,03,19,24,19.40
2017,07,03,19,26,19.20
2017,07,03,19,27,19.10
2017,07,03,19,28,18.90
2017,07,03,19,29,18.70
2017,07,03,19,31,18.30
2017,07,03,19,32,18.20
2017,07,03,19,33,18.20
2017,07,03,19,34,18.20
2017,07,03,19,36,18.20
2017,07,03,19,37,18.20
2017,07,03,19,38,18.30
2017,07,03,19,39,18.30
2017,07,03,19,41,18.40
2017,07,03,19,42,18.50
2017,07,03,19,43,18.50
2017,07,03,19,44,18.50
2017,07,03,19,46,18.50
2017,07,03,19,47,18.50
2017,07,03,19,48,18.50
2017,07,03,19,49,18.50
2017,07,03,19,51,18.50
2017,07,03,19,52,18.50
2017,07,03,19,53,18.50
2017,07,03,19,54,18.50
2017,07,03,19,56,18.50
2017,07,03,19,57,18.40
2017,07,03,19,58,18.30
2017,07,03,19,59,18.30
2017,07,03,20,01,18.20
2017,07,03,20,02,18.20
2017,07,03,20,03,18.20
2017,07,03,20,04,18.20
2017,07,03,20,06,18.20
2017,07,03,20,07,18.20
2017,07,03,20,08,18.20
2017,07,03,20,09,18.20
2017,07,03,20,10,18.20
2017,07,03,20,11,18.20
2017,07,03,20,12,18.20
2017,07,03,20,13,18.20
2017,07,03,20,14,18.20
2017,07,03,20,15,18.20
2017,07,03,20,16,18.20
2017,07,03,20,17,18.20
2017,07,03,20,18,18.20
2017,07,03,20,19,18.10
2017,07,03,20,20,18.10
2017,07,03,20,21,18.10
2017,07,03,20,22,18.10
2017,07,03,20,23,18.10
2017,07,03,20,24,17.90
2017,07,03,20,25,17.90
2017,07,03,20,26,17.90
2017,07,03,20,27,17.90
2017,07,03,20,28,17.90
2017,07,03,20,29,17.90
2017,07,03,20,30,17.90
2017,07,03,20,31,17.80
2017,07,03,20,32,17.80
2017,07,03,20,33,17.80
2017,07,03,20,34,17.80
2017,07,03,20,35,17.70
2017,07,03,20,36,17.70
2017,07,03,20,37,17.70
2017,07,03,20,38,17.70
2017,07,03,20,39,17.60
2017,07,03,20,40,17.60
2017,07,03,20,41,17.60
2017,07,03,20,42,17.60
2017,07,03,20,43,17.50
2017,07,03,20,44,17.50
2017,07,03,20,45,17.50
2017,07,03,20,46,17.40
2017,07,03,20,47,17.40
2017,07,03,20,48,17.40
2017,07,03,20,49,17.40
2017,07,03,20,50,17.40
2017,07,03,20,51,17.30
2017,07,03,20,52,17.30
2017,07,03,20,53,17.30
2017,07,03,20,54,17.30
2017,07,03,20,55,17.30
2017,07,03,20,56,17.30
2017,07,03,20,57,17.30
2017,07,03,20,58,17.20
2017,07,03,20,59,17.20
2017,07,03,21,00,17.20
2017,07,03,21,01,17.20
2017,07,03,21,02,17.20
2017,07,03,21,03,17.10
2017,07,03,21,04,17.10
2017,07,03,21,05,17.10
2017,07,03,21,06,17.10
2017,07,03,21,07,17.10
2017,07,03,21,08,17.10
2017,07,03,21,09,17.00
2017,07,03,21,10,17.00
2017,07,03,21,11,17.00
2017,07,03,21,12,17.00
2017,07,03,21,13,17.00
2017,07,03,21,14,17.00
2017,07,03,21,15,16.90
2017,07,03,21,16,16.90
2017,07,03,21,17,16.90
2017,07,03,21,18,16.90
2017,07,03,21,19,16.90
2017,07,03,21,20,16.90
2017,07,03,21,21,16.80
2017,07,03,21,22,16.80
2017,07,03,21,24,16.80